DB3LD Weather Reports


time (UTC)temp
C
wind
direction
speed
KPH
gust
KPH
rain 1hr
cm
rain 24hr
cm
rain mn
cm
humidity
%
barometer
mb
20260507130013 15 17 11.3 19.3 0.00 0.00 0.00 45 1016.7
20260507115012 15 63 11.3 27.4 0.00 0.00 0.00 47 1016.5
20260507103011 15 89 9.7 17.7 0.00 0.00 0.00 54 1016.4
20260507092015 13 22 8.0 20.9 0.00 0.00 0.00 61 1015.9
20260507080013 11 67 6.4 14.5 0.00 0.00 0.00 71 1015.3
20260507060012 9 73 9.7 17.7 0.00 0.00 0.00 80 1014.6
20260507050011 7 77 4.8 8.0 0.00 0.00 0.00 87 1014.2
20260507041011 5 61 0.0 0.0 0.00 0.00 0.00 89 1013.7
20260507034015 5 27 0.0 1.6 0.00 0.00 0.00 88 1013.4
20260507025015 6 46 0.0 4.8 0.00 0.00 0.00 86 1013.1
20260507023014 6 38 1.6 4.8 0.00 0.00 0.00 86 1013.0
20260507021014 6 74 1.6 4.8 0.00 0.00 0.00 85 1012.9
20260507011014 7 87 4.8 8.0 0.00 0.00 0.00 83 1012.5
20260507003012 8 48 8.0 12.9 0.00 0.00 0.00 82 1012.4
20260506232012 8 65 8.0 17.7 0.00 0.00 0.00 82 1012.2
20260506205015 9 53 6.4 16.1 0.00 0.00 0.00 82 1011.5
20260506204014 9 355 3.2 9.7 0.00 0.00 0.00 82 1011.3
20260506192013 10 56 11.3 24.1 0.00 0.00 0.00 75 1010.7
20260506181012 11 63 4.8 16.1 0.00 0.00 0.00 66 1010.0
20260506164011 12 43 8.0 14.5 0.00 0.00 0.00 66 1009.1
20260506153015 13 40 3.2 17.7 0.00 0.00 0.00 63 1009.3
20260506145014 13 34 6.4 19.3 0.00 0.00 0.00 59 1009.2